Regional Weather Roundup
Issued by NWS Little Rock, AR

Home | Current Version | Previous Version | Graphics & Text | Print | Product List | Glossary On
Versions: 1 2 3 4 5 6 7 8 9 10 11 12 13 14 15 16 17 18 19 20 21 22 23 24 25 26 27 28 29 30 31 32 33
000
ASUS44 KLZK 221505
RWRLZK

WEATHER ROUNDUP FOR ARKANSAS
NATIONAL WEATHER SERVICE LITTLE ROCK AR
1000 AM CDT MON MAY 22 2017

NOTE: "FAIR" INDICATES FEW OR NO CLOUDS BELOW 12,000 FEET WITH NO
SIGNIFICANT WEATHER AND/OR OBSTRUCTIONS TO VISIBILITY.

ARZ001-003-010-029-221600-
NORTHWEST ARKANSAS

CITY           SKY/WX    TMP DP  RH WIND       PRES   REMARKS
FAYETTEVILLE   SUNNY     65  55  70 CALM      30.14S
FORT SMITH     SUNNY     69  52  54 NE12      30.12F
HARRISON       CLOUDY    64  48  56 S12       30.15F
BENTONVILLE    SUNNY     68  48  49 S8        30.15F
ROGERS         SUNNY     69  52  54 S8        30.15F
SILOAM SPGS    SUNNY     68  52  56 S7        30.13F
HIGHFILL       SUNNY     68  53  58 S8        30.14F
SPRINGDALE     SUNNY     66  50  55 SE6       30.16S
$$

ARZ004-005-016-221600-
NORTH CENTRAL ARKANSAS

CITY           SKY/WX    TMP DP  RH WIND       PRES   REMARKS
BATESVILLE     CLOUDY    63  52  67 S3        30.16F
FLIPPIN        CLOUDY    63  48  59 E3        30.13S
MTN HOME       PTSUNNY   61  50  67 S6        30.14F
$$

ARZ040-041-221600-
WEST CENTRAL ARKANSAS

CITY           SKY/WX    TMP DP  RH WIND       PRES   REMARKS
MENA           SUNNY     70  54  56 E9        30.13S
MOUNT IDA      CLOUDY    70  49  47 SE8       30.10F
$$

ARZ009-017-025-026-028-221600-
NORTHEAST ARKANSAS

CITY           SKY/WX    TMP DP  RH WIND       PRES   REMARKS
JONESBORO      CLOUDY    67  49  52 E10       30.15F
NEWPORT        CLOUDY    65  53  65 E8        30.16F
WALNUT RIDGE   CLOUDY    64  50  59 SE9       30.15F
BLYTHEVILLE    CLOUDY    67  52  58 E14       30.14F
NW BLYTHEVILLE PTSUNNY   68  50  52 E8G16     30.14F
$$

ARZ022-023-033-042-044-221600-
CENTRAL ARKANSAS

CITY           SKY/WX    TMP DP  RH WIND       PRES   REMARKS
LITTLE ROCK    CLOUDY    65  55  70 NE7       30.13F
N LITTLE ROCK    N/A     65  55  70 E6        30.13F
JACKSONVILLE   CLOUDY    64  55  74 NE6       30.12F
CONWAY           N/A     66  54  63 E5        30.12F
SEARCY         CLOUDY    65  56  72 NE8       30.15F
HOT SPRINGS    CLOUDY    66  51  58 E8        30.13S
RUSSELLVILLE   MOSUNNY   66  52  60 VRB5      30.14F
CLINTON        FAIR      61  54  77 CALM      30.16S
$$

ARZ036-221600-
EAST ARKANSAS

CITY           SKY/WX    TMP DP  RH WIND       PRES   REMARKS
WEST MEMPHIS   CLOUDY    68  49  50 E10       30.14S
$$

ARZ050-053-066-070-073-221600-
SOUTHWEST ARKANSAS

CITY           SKY/WX    TMP DP  RH WIND       PRES   REMARKS
ARKADELPHIA    FAIR      63  56  78 VRB5      30.12F
CAMDEN         CLOUDY    63  55  77 E5        30.10F
TEXARKANA      CLOUDY    63  61  93 NE6       30.10S
DE QUEEN       SUNNY     71  51  49 E13       30.09S
$$

ARZ056-057-069-221600-
SOUTHEAST ARKANSAS

CITY           SKY/WX    TMP DP  RH WIND       PRES   REMARKS
PINE BLUFF     PTSUNNY   64  55  72 NE7       30.11F
STUTTGART      CLOUDY    64  46  52 E9        30.13F
MONTICELLO     CLOUDY    64  58  80 NE3       30.11F

$$






USA.gov is the U.S. government's official web portal to all federal, state and local government web resources and services.